Location: Avoca
(45.7167°N, 74.7000°W)
Time: 13:03:55
(UTC+00:00)

Tiangong - Pass Details

Date: 01 December 2022
Orbit: 383 x 386 km, 41.5° (Epoch: 30 January)

Event Time Altitude Azimuth Distance (km) Brightness Sun altitude
Rises 23:51:18 0° 248° (WSW) 2,257 2.9 -26.3°
Reaches altitude 10° 23:53:27 10° 238° (WSW) 1,406 1.5 -26.7°
Enters shadow 23:54:18 16° 231° (SW) 1,106 0.8 -26.9°
